TimeCST,TemperatureF,Dew PointF,Humidity,Sea Level PressureIn,VisibilityMPH,Wind Direction,Wind SpeedMPH,Gust SpeedMPH,PrecipitationIn,Events,Conditions,WindDirDegrees,DateUTC
12:19 AM,71.6,71.6,100,29.80,4.0,South,6.9,-,N/A,,Overcast,190,2013-12-05 06:19:00
12:52 AM,72.0,71.1,97,29.80,6.0,South,11.5,-,N/A,,Overcast,180,2013-12-05 06:52:00
1:30 AM,71.6,69.8,94,29.80,3.0,South,9.2,-,N/A,,Overcast,180,2013-12-05 07:30:00
1:52 AM,72.0,70.0,93,29.79,5.0,South,9.2,-,N/A,,Overcast,180,2013-12-05 07:52:00
2:01 AM,71.6,69.8,94,29.79,5.0,South,9.2,-,N/A,,Overcast,170,2013-12-05 08:01:00
2:44 AM,71.6,69.8,94,29.78,5.0,South,11.5,-,N/A,,Mostly Cloudy,170,2013-12-05 08:44:00
2:52 AM,72.0,70.0,93,29.78,5.0,South,10.4,-,N/A,,Overcast,180,2013-12-05 08:52:00
3:02 AM,71.6,69.8,94,29.78,5.0,South,8.1,-,N/A,,Overcast,180,2013-12-05 09:02:00
3:21 AM,71.6,69.8,94,29.78,5.0,South,9.2,-,N/A,,Overcast,180,2013-12-05 09:21:00
3:52 AM,71.1,69.1,93,29.79,5.0,South,8.1,-,N/A,,Overcast,180,2013-12-05 09:52:00
4:52 AM,72.0,69.1,91,29.79,5.0,South,9.2,-,N/A,,Overcast,180,2013-12-05 10:52:00
5:52 AM,71.1,69.1,93,29.79,5.0,South,8.1,-,N/A,,Overcast,170,2013-12-05 11:52:00
6:52 AM,72.0,69.1,91,29.81,3.0,South,10.4,-,N/A,,Overcast,180,2013-12-05 12:52:00
7:52 AM,72.0,70.0,93,29.83,2.5,South,12.7,-,N/A,,Overcast,170,2013-12-05 13:52:00
8:39 AM,71.6,69.8,94,29.84,3.0,South,10.4,-,N/A,,Overcast,190,2013-12-05 14:39:00
8:52 AM,72.0,70.0,93,29.85,4.0,South,12.7,-,N/A,,Overcast,190,2013-12-05 14:52:00
9:19 AM,73.4,69.8,88,29.85,5.0,South,10.4,-,N/A,,Overcast,180,2013-12-05 15:19:00
9:52 AM,75.0,70.0,84,29.86,6.0,South,11.5,-,N/A,,Haze,170,2013-12-05 15:52:00
10:52 AM,77.0,70.0,79,29.85,7.0,South,15.0,-,N/A,,Overcast,180,2013-12-05 16:52:00
11:52 AM,75.0,69.1,82,29.84,7.0,South,15.0,-,N/A,,Overcast,180,2013-12-05 17:52:00
12:52 PM,77.0,69.1,76,29.81,8.0,South,13.8,-,N/A,,Overcast,180,2013-12-05 18:52:00
1:52 PM,78.1,70.0,76,29.78,9.0,South,12.7,-,N/A,,Overcast,170,2013-12-05 19:52:00
2:01 PM,78.8,69.8,74,29.77,9.0,SSE,12.7,-,N/A,,Overcast,160,2013-12-05 20:01:00
2:31 PM,82.4,69.8,66,29.75,10.0,South,15.0,-,N/A,,Scattered Clouds,180,2013-12-05 20:31:00
2:52 PM,82.9,70.0,65,29.74,10.0,SSE,16.1,21.9,N/A,,Clear,160,2013-12-05 20:52:00
3:52 PM,82.0,70.0,67,29.74,10.0,South,11.5,-,N/A,,Clear,170,2013-12-05 21:52:00
4:41 PM,78.8,71.6,78,29.76,10.0,SSE,10.4,-,N/A,,Mostly Cloudy,160,2013-12-05 22:41:00
4:52 PM,78.1,71.1,79,29.77,10.0,South,9.2,-,N/A,,Mostly Cloudy,190,2013-12-05 22:52:00
5:52 PM,75.9,71.1,85,29.79,10.0,ESE,4.6,-,N/A,,Overcast,110,2013-12-05 23:52:00
6:52 PM,75.9,72.0,87,29.83,9.0,ENE,5.8,-,N/A,,Overcast,70,2013-12-06 00:52:00
6:58 PM,75.2,71.6,89,29.83,9.0,East,5.8,-,N/A,,Overcast,90,2013-12-06 00:58:00
7:52 PM,75.9,72.0,87,29.85,9.0,ENE,8.1,-,N/A,,Overcast,60,2013-12-06 01:52:00
8:52 PM,69.1,66.0,90,29.87,6.0,NE,17.3,23.0,N/A,,Overcast,50,2013-12-06 02:52:00
9:02 PM,66.2,64.4,94,29.87,6.0,NE,17.3,-,N/A,,Overcast,50,2013-12-06 03:02:00
9:52 PM,61.0,59.0,93,29.91,5.0,NNE,21.9,27.6,N/A,,Overcast,20,2013-12-06 03:52:00
10:38 PM,57.2,55.4,94,29.92,6.0,NNE,13.8,-,0.00,,Overcast,20,2013-12-06 04:38:00
10:52 PM,57.0,55.0,93,29.93,6.0,North,17.3,23.0,0.00,,Overcast,10,2013-12-06 04:52:00
11:52 PM,53.1,51.1,93,29.94,6.0,North,16.1,21.9,N/A,,Overcast,360,2013-12-06 05:52:00